7 * 24
多渠道服务支持
OTTER PUP 2(水獭幼崽2号)是美国海星太空公司研发的技术验证卫星,于2025年6月23日搭乘SpaceX“运输者14号”拼车任务在卡纳维拉尔角发射。 它旨在验证无需专用对接装置的航天器自主静电捕获对接技术,将与意大利D-Orbit公司航天器开展对接试验,该技术有望为卫星维修、延寿及轨道碎片处理赋能。
美国
(US)
| 数据来源 | 国际轨道数据 |
| 星历时间: | 2026-09-10T10:40:17+0800 2天前 查看轨道信息 |
| 半长轴: | 6873.409km |
| 偏心率: | 0.00031 |
| 轨道倾角: | 97.483° |
| 近地点辐角 | 211.084° |
| 升交点赤经 | 8.274° |
| 平近点角 | 149.021° |
| 近地点: | 493.141km |
| 远地点: | 497.403km |
| 周期: | 94.519分钟 |
| 每日圈数: | 15.235074 |